Overview Statistics Trail Chart Weather Telemetry Raw packets
 

This is the latest recevied weather packets stored in our database for station/object K8RRT. If no packets are shown the sender has not sent any weather packets the latest 10 day(s).

<< 107 108 109 110 111 112 113 >>
Time Temp. Humidity Pressure Rain* Wind** Luminosity Snow
1787802820 19.44° C 99% 1010.7 hPa 0 mm - 0 W/m² -
1787802519 20° C 99% 1010.7 hPa 0 mm - 0 W/m² -
1787802219 20° C 99% 1010.5 hPa 0 mm - 0 W/m² -
1787801915 20° C 99% 1010.6 hPa 0 mm - 0 W/m² -
1787801610 20° C 99% 1010.9 hPa 0 mm - 0 W/m² -
1787801309 20° C 99% 1010.6 hPa 0 mm - 0 W/m² -
1787801008 20° C 99% 1010.7 hPa 0 mm - 0 W/m² -
1787800706 20° C 99% 1010.7 hPa 0 mm - 0 W/m² -
1787800398 20.56° C 99% 1010.7 hPa 0 mm - 0 W/m² -
1787800093 20.56° C 99% 1010.7 hPa 0 mm - 0 W/m² -
1787799792 20° C 99% 1010.8 hPa 0 mm - 0 W/m² -
1787799488 20° C 99% 1010.9 hPa 0 mm - 0 W/m² -
1787799183 20.56° C 99% 1011 hPa 0 mm - 0 W/m² -
1787798882 20.56° C 99% 1010.7 hPa 0 mm - 0 W/m² -
1787798577 20.56° C 99% 1010.8 hPa 0 mm - 0 W/m² -
1787798272 20.56° C 99% 1011 hPa 0 mm - 0 W/m² -
1787797971 20.56° C 99% 1011.1 hPa 0 mm - 0 W/m² -
1787797665 20.56° C 99% 1011 hPa 0 mm - 0 W/m² -
1787797361 21.11° C 99% 1010.9 hPa 0 mm - 0 W/m² -
1787797057 20.56° C 99% 1011.2 hPa 0 mm - 0 W/m² -
1787796751 20.56° C 99% 1011.2 hPa 0 mm - 0 W/m² -
1787796446 21.11° C 99% 1011.2 hPa 0 mm - 0 W/m² -
1787796142 21.11° C 99% 1011.3 hPa 0 mm - 0 W/m² -
1787795840 21.67° C 99% 1011.1 hPa 0 mm - 0 W/m² -
1787795539 21.67° C 99% 1011.3 hPa 0 mm - 0 W/m² -

* Rain latest hour (hover to see other rain measurements)
** Current wind speed in m/s (hover to see current wind gust speed)